Regional Weather Roundup
Issued by NWS Charleston, SC

Current Version | Previous Version | Graphics & Text | Print | Product List | Glossary On
Versions: 1 2 3 4 5 6 7 8 9 10 11 12 13 14 15 16 17 18 19 20 21 22 23 24 25 26 27 28 29 30 31 32 33 34 35 36 37 38 39 40 41 42 43 44 45 46 47 48 49 50
000 ASUS42 KCHS 261610 RWRCHS REGIONAL WEATHER ROUNDUP NATIONAL WEATHER SERVICE CHARLESTON SC 1100 AM EST FRI DEC 26 2014 NOTE: "FAIR" INDICATES FEW OR NO CLOUDS BELOW 12,000 FEET WITH NO SIGNIFICANT WEATHER AND/OR OBSTRUCTIONS TO VISIBILITY. NOT ALL STATIONS ARE QUALITY CONTROLLED BY THE NATIONAL WEATHER SERVICE. USE DATA WITH CAUTION...ESPECIALLY DEWPOINT OBSERVATIONS. SCZ027-030-031-034>040-042>050-261700- ...SOUTHEAST SOUTH CAROLINA... CITY SKY/WX TMP DP RH WIND PRES REMARKS N CHARLESTON MOSUNNY 60 44 55 NE3 30.35S WATERFRONT PRK N/A 59 N/A N/A N6 N/A MOUNT PLEASANT FAIR 57 46 67 CALM 30.34S PINOPOLIS NOT AVBL MONCKS CORNER FAIR 59 43 55 E5 30.35S SUMMERVILLE FAIR 57 46 67 CALM 30.36S BEAUFORT MCAS SUNNY 57 45 64 CALM 30.35S BEAUFORT ARPT FAIR 55 46 71 NE5 30.34F HILTON HEAD IS SUNNY 57 46 67 N6 30.35S WALTERBORO SUNNY 59 37 44 E5 30.36S ALLENDALE FAIR 54 43 66 CALM 30.36S ...SOUTHERN MIDLANDS AND PEE DEE... CITY SKY/WX TMP DP RH WIND PRES REMARKS GEORGETOWN NOT AVBL KINGSTREE NOT AVBL ORANGEBURG SUNNY 54 39 57 CALM 30.37R BARNWELL FAIR 55 43 62 N3 30.37F AIKEN FAIR 52 37 58 NE3 30.39F MANNING FAIR 55 43 62 CALM 30.36S COLUMBIA MOSUNNY 50 40 68 CALM 30.37F SUMTER SUNNY 54 37 52 VRB1 30.35S FLORENCE SUNNY 54 38 54 VRB5 30.36F MYRTLE BEACH SUNNY 57 41 54 NE8 30.37F N MYRTLE BEACH SUNNY 58 41 53 NE5 30.35F $$ GAZ063-065-086>088-099>101-113>116-118-119-134>141-150-261700- ...SOUTHEAST GEORGIA... CITY SKY/WX TMP DP RH WIND PRES REMARKS SAVANNAH ARPT MOSUNNY 59 41 51 NE6 30.35F HUNTER AAF SUNNY 59 44 57 VRB6 30.32F FORT STEWART SUNNY 56 42 60 NE5 30.33S STATESBORO MOSUNNY 54 43 68 N3 30.37R SYLVANIA SUNNY 54 44 68 N3 30.37S CLAXTON FAIR 55 45 67 E3 30.36R ...CSRA...CENTRAL AND FAR SOUTHEAST GEORGIA... CITY SKY/WX TMP DP RH WIND PRES REMARKS THOMSON SUNNY 51 44 77 CALM 30.41S AUGUSTA-BUSH SUNNY 49 41 74 CALM 30.37F AUGUSTA-DANIEL SUNNY 52 37 56 E6 30.37S SWAINSBORO NOT AVBL VIDALIA SUNNY 55 43 62 NE6 30.35S EASTMAN FAIR 49 49 100 E3 30.38S HAZLEHURST FAIR 54 45 70 E5 30.34S ALMA SUNNY 56 41 57 VRB3 30.34R WAYCROSS SUNNY 59 47 65 NE5 30.33S JESUP FAIR 59 46 63 E5 30.34S BAXLEY FAIR 57 43 58 NE3 30.34S BRUNSWICK SUNNY 59 48 67 N6 30.33S SAINT SIMONS SUNNY 60 49 66 NE9 30.32S $$ SCZ027-028-034-036>038-045-046-048>050-GAZ119-141-261700- ...LAKE AND SUPPLEMENTAL COASTAL OBSERVATIONS... STATION/POSITION TIME TEMP WIND PRES WAVE SWELL AIR SEA DIR/SP/G HT/PER HT/PER/DIR (UTC) (F) (DEG/KT/KT) (MB) (FT/S) (FT/S/D) UPR LAKE MARION NOT AVBL WINYAH BAY 1500 55 30/ 4 1027.0S LAKE MURRAY 1500 45 260/ 2/ 3 1028.1R ACE BASIN NERRS 1500 50 30/ 2 1027.0S FORT PULASKI 1600 55 56 30/ 6/ 8 1027.7F SAPELO ISLAND 1500 54 360/ 8 1027.0R $$ ANZ835-935-AMZ111-154-330-350-352-354-370-450-454-472-261700- ...C-MAN AND BUOY OBSERVATIONS... STATION/POSITION TIME TEMP WIND PRES WAVE SWELL AIR SEA DIR/SP/G HT/PER HT/PER/DIR (UTC) (F) (DEG/KT/KT) (MB) (FT/S) (FT/S/D) BUOY 41004 1600 63 72 30/ 12/ 14 1026.1F 2/ 8 2/ 8 BUOY 41008 1600 56 59 20/ 14/ 16 1026.2F 2/ 8 2/130/ 8 FOLLY BEACH CMAN 1500 53 10/ 7/ 8 1027.6F CAPERS NEARSHORE NOT AVBL FRIPP NEARSHORE NOT AVBL STATION/POSITION TIME TEMP WIND PRES WAVE SWELL AIR SEA DIR/SP/G HT/PER HT/PER/DIR (UTC) (F) (DEG/KT/KT) (MB) (FT/S) (FT/S/D) 5E ST. MARYS GA 1600 62 N/A 2/10 FRYING PAN BUOY 1600 58 70 20/ 12/ 14 1027.8R 2/ 7 2/140/ 7 BUOY 41025 1600 58 1027.4R 3/ 8 CAPE LOOKOUT NC 1500 53 350/ 5/ 6 1027.7R BUOY 41002 1455 68 73 60/ 10/ 12 1025.7 4/ 6 3/300/ 6 BUOY 41010 1600 72 76 60/ 6/ 8 1024.3F 3/ 6 3/310/ 6 ST AUGUSTINE FL 1600 60 360/ 11/ 12 1025.8F $$

USA.gov is the U.S. government's official web portal to all federal, state and local government web resources and services.